COSMOS 2251 DEB

Satellite information

Favourite Embed

Satellite Type and Status

DEBRISIN ORBIT

Key statistics

Satellite COSMOS 2251 DEB at a glance.

Uptime

11654

Days in orbit

Revolutions

≈ 15.5

Per day

Orbit

LEO

Low Earth Orbit

Inclination

74.0

Latest

Satellite identification and parameters

Extended collection of information and parameters for COSMOS 2251 DEB.

Object identification

Identified? True

Debris? True

Object name: COSMOS 2251 DEB

International designator: 1993-036LV

Object number (NORAD): 34275

Object ID (CCSDS): 34275

Country: COMMONWEALTH OF INDEPENDENT STATES (CIS)

Current information (Y/N): Y

RCS size: SMALL

Orbital parameters

Period: 92.643 minutes

Inclination: 73.9922 deg

SMA: 6782.145 km

Apoapsis: 422.339 km

Periapsis: 385.68 km

RAAN: 74.2579 deg

Eccentricy: 0.0027026

Argument of periapsis: 191.7627 deg

Mean anomaly: 168.2961 deg

Mean motion: 15.54361978 rev/day

Mean motion (dot): 0.00569807 rev/day2

B* drag term: 0.0079883 1/REarth

Two-line elements (TLE)

Creation date: May 12, 2025, 11:06 p.m.

Reference frame: TEME

Reference center: EARTH

Epoch: May 12, 2025, 9:01 p.m. UTC

TLE line 0: 0 COSMOS 2251 DEB

TLE line 1: 1 34275U 93036LV 25132.87629555 .00569807 00000-0 79883-2 0 9994

TLE line 2: 2 34275 73.9922 74.2579 0027026 191.7627 168.2961 15.54361978857360

Live tracking on map

Real-time ground track for satellite COSMOS 2251 DEB.

In-orbit conjunctions

A list of the most updated potential collisions computed for object COSMOS 2251 DEB.

Target Orbit TCA Probability of collision Miss distance Type
CZ-6A DEB LEO 2024-11-07 14:03:19 0.0001275344 265.0 (m) DEBRIS

Associated space launch

Military communications satellite. Destroyed in a collision with Iridium 33.

COSMOS 2251 DEB was lifted into orbit during the mission ‘Kosmos-3M | Strela-2M 51’, on board a Kosmos-3M space rocket.

The launch took place on June 16, 1993, 4:17 a.m. from 132/1 (132L).

For more information about the launch, click the button.

Launch to space Kosmos-3M | Strela-2M 51
Kosmos-3M | Strela-2M 51

Agency: N/A

Status: Launch Successful

Launch date: June 16, 1993, 4:17 a.m. UTC

Rocket: Kosmos-3M

Launch pad: 132/1 (132L)

Location: Plesetsk Cosmodrome, Russian Federation

...

Latest news about this satellite

There are no fresh news available about this satellite. Check back as we update our databases every day.


Newsletter sign-up

Weekly statistics, charts and insights to help you stay on top of the space industry.